Location: Macksville High School
(37.9611°N, 99.9654°W)
Time: 20:03:53
(UTC+00:00)

Cosmos 2237 Rocket - Pass Details

Date: 17 January 2021
Orbit: 833 x 851 km, 71.0° (Epoch: 26 February)

Event Time Altitude Azimuth Distance (km) Brightness Sun altitude
Rises 12:46:41 0° 198° (SSW) 3,375 5.3 -13.2°
Reaches altitude 10° 12:49:06 10° 198° (SSW) 2,447 4.6 -12.7°
Maximum altitude 12:54:44 84° 112° (ESE) 852 2.3 -11.6°
Drops below altitude 10° 13:00:25 10° 24° (NNE) 2,474 4.7 -10.6°
Sets 13:02:53 0° 24° (NNE) 3,416 5.4 -10.1°
